EW5655 Weather Reports


Display with metric or nautical units.
time (UTC)temp
F
wind
direction
speed
MPH
gust
MPH
rain 1hr
in
rain 24hr
in
rain mn
in
humidity
%
barometer
mb
20260905004530 84 330 6.0 14.0 0.00 0.06 0.06 48 1016.3
20260905004029 85 336 9.0 14.0 0.00 0.06 0.06 46 1016.3
20260905003529 85 319 5.0 14.0 0.00 0.06 0.06 46 1016.3
20260905003033 86 320 6.0 13.0 0.00 0.06 0.06 45 1016.2
20260905002529 87 311 5.0 13.0 0.00 0.06 0.06 42 1016.2
20260905002029 88 313 7.0 13.0 0.00 0.06 0.06 40 1016.1
20260905001529 90 218 2.0 7.0 0.00 0.06 0.06 36 1016.0
20260905001029 90 226 3.0 7.0 0.00 0.06 0.06 36 1015.8
20260905000529 90 258 3.0 7.0 0.00 0.06 0.06 36 1015.9
20260905000028 90 300 3.0 7.0 0.00 0.06 0.06 35 1015.8
20260904235528 91 319 2.0 7.0 0.00 0.06 0.06 35 1015.8
20260904235028 91 321 3.0 7.0 0.00 0.06 0.06 34 1015.8
20260904234527 91 234 3.0 7.0 0.00 0.06 0.06 35 1015.8
20260904234028 91 240 3.0 7.0 0.00 0.06 0.06 36 1015.8
20260904233528 90 184 2.0 7.0 0.00 0.06 0.06 36 1015.8
20260904233030 90 254 5.0 8.0 0.00 0.06 0.06 36 1015.8
20260904232526 91 249 5.0 8.0 0.00 0.06 0.06 36 1015.8
20260904232028 91 246 2.0 6.0 0.00 0.06 0.06 37 1015.9
20260904231535 91 346 2.0 8.0 0.00 0.06 0.06 36 1015.9
20260904231026 91 310 4.0 10.0 0.00 0.06 0.06 37 1016.0
20260904230526 91 165 1.0 10.0 0.00 0.06 0.06 37 1015.9
20260904230042 91 281 6.0 9.0 0.00 0.06 0.06 37 1015.9
20260904225527 91 281 2.0 8.0 0.00 0.06 0.06 36 1015.9
20260904225026 91 250 4.0 8.0 0.00 0.06 0.06 36 1015.8
20260904224525 90 195 1.0 5.0 0.00 0.06 0.06 38 1015.8
20260904224025 91 119 0.0 6.0 0.00 0.06 0.06 38 1015.8
20260904223524 91 109 2.0 5.0 0.00 0.06 0.06 39 1015.9
20260904223024 89 112 1.0 5.0 0.00 0.06 0.06 41 1015.9
20260904222522 88 334 2.0 7.0 0.00 0.06 0.06 40 1016.0
20260904222022 89 348 3.0 7.0 0.00 0.06 0.06 40 1016.1
20260904221521 90 324 1.0 4.0 0.00 0.06 0.06 40 1016.2
20260904221022 90 18 0.0 4.0 0.00 0.06 0.06 40 1016.2
20260904220521 88 169 0.0 2.0 0.00 0.06 0.06 42 1016.3
20260904220021 89 169 0.0 5.0 0.00 0.06 0.06 41 1016.4
20260904215521 88 240 1.0 5.0 0.00 0.06 0.06 41 1016.5
20260904215019 88 311 0.0 6.0 0.00 0.06 0.06 41 1016.5
20260904214620 89 307 1.0 7.0 0.00 0.06 0.06 41 1016.5
20260904214019 90 334 2.0 7.0 0.00 0.06 0.06 39 1016.5
20260904213518 91 30 0.0 8.0 0.00 0.06 0.06 39 1016.6
20260904213027 90 178 4.0 8.0 0.00 0.06 0.06 40 1016.8
20260904212517 90 260 4.0 8.0 0.00 0.06 0.06 40 1016.8
20260904212017 91 225 3.0 8.0 0.00 0.06 0.06 40 1016.8
20260904211515 90 281 1.0 6.0 0.00 0.06 0.06 40 1016.8
20260904211015 89 31 1.0 8.0 0.00 0.06 0.06 40 1016.8
20260904210515 90 199 2.0 8.0 0.00 0.06 0.06 40 1016.9
20260904210014 90 300 4.0 8.0 0.00 0.06 0.06 41 1017.0
20260904205513 90 169 4.0 8.0 0.00 0.06 0.06 40 1017.0
20260904205012 90 355 1.0 10.0 0.00 0.06 0.06 39 1017.0
20260904204521 90 248 3.0 10.0 0.00 0.06 0.06 40 1017.1
20260904204012 89 232 2.0 6.0 0.00 0.06 0.06 42 1017.3
20260904203510 89 171 2.0 5.0 0.00 0.06 0.06 41 1017.3
20260904203016 88 315 1.0 10.0 0.00 0.06 0.06 43 1017.5
20260904202512 88 182 5.0 10.0 0.00 0.06 0.06 43 1017.4
20260904202010 88 292 2.0 9.0 0.00 0.06 0.06 43 1017.6
20260904201508 89 244 4.0 9.0 0.00 0.06 0.06 42 1017.7
20260904201008 88 265 4.0 10.0 0.00 0.06 0.06 44 1017.8
20260904200509 88 164 4.0 10.0 0.00 0.06 0.06 42 1017.8
20260904200007 88 169 4.0 10.0 0.00 0.06 0.06 43 1017.8
20260904195507 87 184 3.0 13.0 0.00 0.06 0.06 44 1017.8
20260904195007 87 159 3.0 13.0 0.00 0.06 0.06 44 1017.9
20260904194507 88 186 4.0 10.0 0.00 0.06 0.06 44 1018.1
20260904194006 88 173 5.0 10.0 0.00 0.06 0.06 45 1018.1
20260904193504 87 165 0.0 4.0 0.00 0.06 0.06 45 1018.2
20260904193003 86 215 1.0 8.0 0.00 0.06 0.06 45 1018.2
20260904192503 87 300 1.0 8.0 0.00 0.06 0.06 46 1018.3
20260904192003 86 236 3.0 10.0 0.00 0.06 0.06 45 1018.4
20260904191502 86 315 3.0 9.0 0.00 0.06 0.06 45 1018.5
20260904191001 85 237 0.0 7.0 0.00 0.06 0.06 48 1018.5
20260904190501 85 211 4.0 7.0 0.00 0.06 0.06 49 1018.6
20260904190002 85 254 3.0 9.0 0.00 0.06 0.06 50 1018.7
20260904185601 84 241 2.0 9.0 0.00 0.06 0.06 51 1018.8
20260904185104 85 246 5.0 9.0 0.00 0.06 0.06 49 1018.9
20260904184600 85 202 5.0 7.0 0.00 0.06 0.06 49 1018.9
20260904184059 85 123 1.0 5.0 0.00 0.06 0.06 48 1019.0
20260904183601 84 345 0.0 8.0 0.00 0.06 0.06 50 1019.1
20260904183115 84 238 3.0 8.0 0.00 0.06 0.06 49 1019.3
20260904182558 84 161 4.0 8.0 0.00 0.06 0.06 50 1019.3
20260904182056 84 196 2.0 8.0 0.00 0.06 0.06 52 1019.4
20260904181556 84 178 1.0 8.0 0.00 0.06 0.06 53 1019.5
20260904181056 84 294 0.0 5.0 0.00 0.06 0.06 52 1019.5
20260904180556 85 100 1.0 3.0 0.00 0.06 0.06 53 1019.6
20260904180058 83 102 1.0 9.0 0.00 0.06 0.06 55 1019.7
20260904175553 81 254 4.0 9.0 0.00 0.06 0.06 57 1019.8
20260904175052 82 251 2.0 7.0 0.00 0.06 0.06 57 1019.8
20260904174550 81 344 2.0 6.0 0.00 0.06 0.06 57 1019.8
20260904174051 81 205 1.0 7.0 0.00 0.06 0.06 59 1019.8
20260904173550 81 250 3.0 7.0 0.00 0.06 0.06 58 1019.9
20260904173055 81 150 1.0 7.0 0.00 0.06 0.06 60 1019.9
20260904172549 80 193 1.0 6.0 0.00 0.06 0.06 59 1020.0
20260904172049 80 276 2.0 6.0 0.00 0.06 0.06 59 1020.0
20260904171607 80 25 1.0 6.0 0.00 0.06 0.06 59 1020.0
20260904171048 79 303 4.0 6.0 0.00 0.06 0.06 62 1020.0
20260904170548 79 223 2.0 5.0 0.00 0.06 0.06 62 1020.0
20260904170047 79 343 1.0 7.0 0.00 0.06 0.06 62 1020.1
20260904165547 79 247 1.0 7.0 0.00 0.06 0.06 62 1020.1
20260904165047 79 216 3.0 6.0 0.00 0.06 0.06 62 1020.1
20260904164556 78 342 1.0 6.0 0.00 0.06 0.06 63 1020.0
20260904164046 77 276 2.0 6.0 0.00 0.06 0.06 65 1020.1
20260904163544 76 286 2.0 5.0 0.00 0.06 0.06 66 1020.1
20260904163044 76 276 0.0 5.0 0.00 0.06 0.06 65 1020.1
20260904162544 77 276 2.0 5.0 0.00 0.06 0.06 65 1020.0
20260904162043 76 286 0.0 6.0 0.00 0.06 0.06 65 1020.1
20260904161548 76 211 0.0 6.0 0.00 0.06 0.06 68 1020.0
20260904161043 75 204 0.0 2.0 0.00 0.06 0.06 70 1020.0
20260904160542 75 203 0.0 5.0 0.00 0.06 0.06 70 1019.9
20260904160041 74 208 2.0 5.0 0.00 0.06 0.06 71 1020.0
20260904155541 74 211 2.0 6.0 0.00 0.06 0.06 72 1020.0
20260904155040 74 227 2.0 6.0 0.00 0.06 0.06 73 1020.0
20260904154539 73 168 2.0 6.0 0.00 0.06 0.06 75 1020.0
20260904154038 73 195 2.0 5.0 0.00 0.06 0.06 75 1020.0
20260904153536 72 165 1.0 5.0 0.00 0.06 0.06 76 1020.0
20260904153054 72 203 1.0 5.0 0.00 0.06 0.06 78 1020.0
20260904152533 72 215 1.0 3.0 0.00 0.06 0.06 78 1019.9
20260904152034 72 248 2.0 5.0 0.00 0.06 0.06 78 1019.8
20260904151533 72 260 2.0 6.0 0.00 0.06 0.06 79 1019.8
20260904151032 72 206 1.0 6.0 0.00 0.06 0.06 80 1019.8
20260904150532 72 217 2.0 6.0 0.00 0.06 0.06 79 1019.8
20260904150040 71 248 1.0 3.0 0.00 0.06 0.06 81 1019.8
20260904145532 71 163 0.0 3.0 0.00 0.06 0.06 81 1019.8
20260904145034 71 163 0.0 5.0 0.00 0.06 0.06 83 1019.7
20260904144530 71 163 1.0 5.0 0.00 0.06 0.06 82 1019.7
20260904144029 71 196 1.0 4.0 0.00 0.06 0.06 83 1019.7
20260904143528 70 196 1.0 3.0 0.00 0.06 0.06 83 1019.8
20260904143026 70 250 1.0 3.0 0.00 0.06 0.06 84 1019.8
20260904142528 70 250 1.0 5.0 0.00 0.06 0.06 83 1019.8
20260904142024 70 250 1.0 5.0 0.00 0.06 0.06 84 1019.7
20260904141523 70 224 2.0 4.0 0.00 0.06 0.06 84 1019.7
20260904141023 70 205 0.0 4.0 0.01 0.06 0.06 84 1019.7
20260904140521 70 205 1.0 4.0 0.01 0.06 0.06 83 1019.7
20260904140031 70 206 1.0 3.0 0.01 0.06 0.06 83 1019.5
20260904135519 70 205 1.0 3.0 0.01 0.06 0.06 83 1019.6
20260904135018 70 106 0.0 2.0 0.01 0.06 0.06 85 1019.4
20260904134516 70 106 0.0 2.0 0.01 0.06 0.06 86 1019.4
20260904134018 70 106 0.0 0.0 0.01 0.06 0.06 85 1019.4
20260904133513 70 106 0.0 0.0 0.01 0.06 0.06 85 1019.3
20260904133012 70 106 0.0 0.0 0.01 0.06 0.06 86 1019.3
20260904132511 69 106 0.0 0.0 0.02 0.06 0.06 86 1019.3
20260904132111 69 106 0.0 2.0 0.02 0.06 0.06 86 1019.2
20260904131533 69 106 0.0 2.0 0.02 0.06 0.06 86 1019.2
20260904131012 69 106 0.0 1.0 0.02 0.05 0.05 87 1019.2
20260904130512 69 106 0.0 1.0 0.02 0.05 0.05 87 1019.0
20260904130009 69 106 0.0 2.0 0.03 0.05 0.05 87 1019.0
20260904125510 69 106 0.0 2.0 0.03 0.05 0.05 86 1019.0
20260904125008 69 106 0.0 2.0 0.03 0.05 0.05 87 1018.9
20260904124507 69 106 0.0 2.0 0.03 0.05 0.05 87 1018.9
20260904124006 69 106 0.0 4.0 0.04 0.05 0.05 86 1018.8
20260904123509 69 214 1.0 4.0 0.04 0.05 0.05 87 1018.9
20260904123005 68 214 0.0 4.0 0.04 0.05 0.05 87 1018.9
20260904122505 69 90 0.0 5.0 0.03 0.04 0.04 88 1019.0
20260904122003 69 92 1.0 5.0 0.03 0.04 0.04 87 1018.9
20260904121504 69 115 3.0 5.0 0.03 0.04 0.04 85 1019.0
20260904121001 69 170 0.0 4.0 0.02 0.03 0.03 86 1019.1
20260904120603 69 170 1.0 4.0 0.02 0.03 0.03 84 1019.0
20260904115559 69 170 1.0 4.0 0.01 0.02 0.02 83 1019.0
20260904115058 69 170 0.0 2.0 0.01 0.02 0.02 83 1019.0
20260904114605 69 170 0.0 2.0 0.01 0.02 0.02 84 1018.8
20260904114057 69 170 0.0 5.0 0.00 0.01 0.01 84 1018.9
20260904113556 69 170 1.0 5.0 0.00 0.01 0.01 84 1019.0
20260904113056 70 157 1.0 2.0 0.00 0.01 0.01 83 1019.0
20260904112557 70 157 0.0 4.0 0.00 0.01 0.01 82 1018.9
20260904112052 70 157 1.0 3.0 0.00 0.01 0.01 82 1018.9
20260904111552 70 157 1.0 4.0 0.01 0.01 0.01 80 1018.9
20260904111051 71 157 0.0 4.0 0.01 0.01 0.01 81 1018.9
20260904110550 71 157 1.0 4.0 0.01 0.01 0.01 79 1019.0
20260904110050 71 157 0.0 4.0 0.01 0.01 0.01 78 1019.0
20260904105550 71 157 1.0 4.0 0.01 0.01 0.01 78 1019.1
20260904105051 71 157 1.0 3.0 0.01 0.01 0.01 77 1019.1
20260904104552 71 103 0.0 2.0 0.01 0.01 0.01 78 1018.9
20260904104047 71 103 0.0 4.0 0.01 0.01 0.01 77 1018.9
20260904103547 71 103 0.0 5.0 0.01 0.01 0.01 77 1018.8
20260904103055 71 103 0.0 6.0 0.01 0.01 0.01 76 1018.8
20260904102548 71 103 3.0 6.0 0.01 0.01 0.01 78 1018.7
20260904102047 71 92 2.0 5.0 0.01 0.01 0.01 78 1018.7
20260904101551 71 239 1.0 3.0 0.00 0.00 0.00 79 1018.6
20260904101046 71 239 0.0 1.0 0.00 0.00 0.00 77 1018.7
20260904100545 72 239 0.0 2.0 0.00 0.00 0.00 73 1018.7
20260904100049 72 239 0.0 2.0 0.00 0.00 0.00 71 1018.7
20260904095543 72 239 0.0 4.0 0.00 0.00 0.00 72 1018.7
20260904095046 72 239 0.0 4.0 0.00 0.00 0.00 69 1018.7
20260904094558 72 265 0.0 8.0 0.00 0.00 0.00 67 1018.6
20260904094040 73 263 3.0 9.0 0.00 0.00 0.00 64 1018.7
20260904093539 73 222 3.0 9.0 0.00 0.00 0.00 63 1018.8
20260904093038 73 210 5.0 10.0 0.00 0.00 0.00 63 1018.7
20260904092536 74 195 6.0 10.0 0.00 0.00 0.00 62 1018.7
20260904092036 74 237 4.0 8.0 0.00 0.00 0.00 62 1018.6
20260904091536 74 215 4.0 7.0 0.00 0.00 0.00 62 1018.5
20260904091036 74 230 4.0 6.0 0.00 0.00 0.00 62 1018.5
20260904090534 74 194 2.0 7.0 0.00 0.00 0.00 62 1018.6
20260904090035 74 209 2.0 7.0 0.00 0.00 0.00 61 1018.8
20260904085534 74 186 2.0 5.0 0.00 0.00 0.00 61 1018.8
20260904085034 74 163 2.0 8.0 0.00 0.00 0.00 61 1018.8
20260904084533 74 193 2.0 8.0 0.00 0.00 0.00 61 1018.9
20260904084034 74 167 3.0 9.0 0.00 0.00 0.00 61 1019.0
20260904083532 75 164 4.0 9.0 0.00 0.00 0.00 60 1018.9
20260904083039 75 223 5.0 9.0 0.00 0.00 0.00 60 1018.8
20260904082532 75 179 4.0 10.0 0.00 0.00 0.00 59 1018.8
20260904082031 75 186 5.0 12.0 0.00 0.00 0.00 58 1018.8
20260904081529 75 196 7.0 13.0 0.00 0.00 0.00 57 1018.8
20260904081030 76 153 8.0 12.0 0.00 0.00 0.00 56 1018.9
20260904080531 76 196 6.0 13.0 0.00 0.00 0.00 55 1018.9
20260904080026 76 175 8.0 13.0 0.00 0.00 0.00 54 1018.9
20260904075525 76 157 7.0 11.0 0.00 0.00 0.00 54 1018.9
20260904075024 76 173 3.0 10.0 0.00 0.00 0.00 54 1018.9
20260904074522 77 186 6.0 10.0 0.00 0.00 0.00 54 1018.8
20260904074021 77 154 3.0 12.0 0.00 0.00 0.00 55 1018.7
20260904073521 77 225 6.0 12.0 0.00 0.00 0.00 55 1018.8
20260904073024 77 165 6.0 12.0 0.00 0.00 0.00 55 1018.7
20260904072520 77 223 5.0 12.0 0.00 0.00 0.00 56 1018.7
20260904072019 78 195 7.0 12.0 0.00 0.00 0.00 56 1018.5
20260904071516 78 203 4.0 13.0 0.00 0.00 0.00 55 1018.4
20260904071015 78 214 7.0 13.0 0.00 0.00 0.00 54 1018.3
20260904070517 79 209 4.0 16.0 0.00 0.00 0.00 54 1018.3
20260904070014 80 216 9.0 16.0 0.00 0.00 0.00 51 1018.2
20260904065512 80 215 5.0 9.0 0.00 0.00 0.00 46 1018.1
20260904065011 80 157 2.0 6.0 0.00 0.00 0.00 46 1017.9
20260904064514 80 167 3.0 11.0 0.00 0.00 0.00 46 1017.6
20260904064016 80 256 4.0 11.0 0.00 0.00 0.00 46 1017.5
20260904063508 80 222 2.0 9.0 0.00 0.00 0.00 45 1017.5
20260904063008 80 205 3.0 11.0 0.00 0.00 0.00 45 1017.5
20260904062507 81 265 5.0 11.0 0.00 0.00 0.00 44 1017.5
20260904062006 81 233 5.0 10.0 0.00 0.00 0.00 43 1017.5
20260904061505 80 221 3.0 6.0 0.00 0.00 0.00 43 1017.3
20260904061006 80 207 2.0 5.0 0.00 0.00 0.00 43 1017.2
20260904060503 80 247 2.0 5.0 0.00 0.00 0.00 42 1017.1
20260904060009 81 232 2.0 9.0 0.00 0.00 0.00 41 1017.2
20260904055503 80 218 3.0 9.0 0.00 0.00 0.00 41 1017.1
20260904055001 79 248 3.0 6.0 0.00 0.00 0.00 43 1017.1
20260904054634 80 43 0.0 2.0 0.00 0.00 0.00 41 1017.0
20260904054101 80 43 0.0 1.0 0.00 0.00 0.00 40 1016.9
20260904053600 80 43 0.0 1.0 0.00 0.00 0.00 40 1016.8
20260904053100 80 43 0.0 1.0 0.00 0.00 0.00 40 1016.8
20260904052600 80 43 0.0 4.0 0.00 0.00 0.00 39 1016.8
20260904052101 81 43 1.0 4.0 0.00 0.00 0.00 39 1016.9
20260904051601 81 43 0.0 2.0 0.00 0.00 0.00 39 1016.9
20260904051101 81 43 0.0 4.0 0.00 0.00 0.00 39 1016.9
20260904050559 81 42 1.0 4.0 0.00 0.00 0.00 39 1016.9
20260904050100 81 16 0.0 2.0 0.00 0.00 0.00 40 1016.9
20260904045600 81 16 0.0 2.0 0.00 0.00 0.00 41 1016.9
20260904045100 82 16 0.0 1.0 0.00 0.00 0.00 41 1017.0
20260904044559 82 16 0.0 1.0 0.00 0.00 0.00 40 1016.9
20260904044059 82 16 0.0 0.0 0.00 0.00 0.00 40 1016.9
20260904043559 82 16 0.0 1.0 0.00 0.00 0.00 39 1016.9
20260904043104 82 16 0.0 1.0 0.00 0.00 0.00 39 1016.9
20260904042558 82 16 0.0 0.0 0.00 0.00 0.00 40 1016.9
20260904042100 82 16 0.0 1.0 0.00 0.00 0.00 39 1016.9
20260904041605 82 16 0.0 1.0 0.00 0.00 0.00 39 1017.0
20260904041059 82 16 0.0 1.0 0.00 0.00 0.00 39 1016.9
20260904040558 82 16 0.0 1.0 0.00 0.00 0.00 40 1016.9
20260904040058 82 16 0.0 0.0 0.00 0.00 0.00 39 1016.8
20260904035559 83 16 0.0 0.0 0.00 0.00 0.00 39 1016.8
20260904035057 83 16 0.0 1.0 0.00 0.00 0.00 38 1016.8
20260904034557 83 16 0.0 2.0 0.00 0.00 0.00 38 1016.7
20260904034101 84 16 0.0 2.0 0.00 0.00 0.00 37 1016.7
20260904033559 84 16 0.0 1.0 0.00 0.00 0.00 37 1016.6
20260904033055 85 16 0.0 1.0 0.00 0.00 0.00 36 1016.6
20260904032557 85 16 0.0 2.0 0.00 0.00 0.00 35 1016.6
20260904032057 85 16 0.0 2.0 0.00 0.00 0.00 35 1016.5
20260904031558 85 16 0.0 3.0 0.00 0.00 0.00 36 1016.5
20260904031053 85 360 2.0 4.0 0.00 0.00 0.00 36 1016.5
20260904030553 85 357 1.0 3.0 0.00 0.00 0.00 36 1016.4
20260904030053 85 319 1.0 4.0 0.00 0.00 0.00 36 1016.3
20260904025553 86 308 0.0 3.0 0.00 0.00 0.00 35 1016.1
20260904025053 86 308 0.0 4.0 0.00 0.00 0.00 35 1016.1
20260904024557 86 276 1.0 4.0 0.00 0.00 0.00 35 1016.0
20260904024055 86 290 1.0 5.0 0.00 0.00 0.00 34 1016.0
20260904023552 86 305 2.0 6.0 0.00 0.00 0.00 34 1015.8
20260904023054 87 263 2.0 7.0 0.00 0.00 0.00 34 1015.8
20260904022551 87 254 3.0 7.0 0.00 0.00 0.00 33 1015.8
20260904022052 87 266 3.0 7.0 0.00 0.00 0.00 33 1015.7
20260904021552 87 276 3.0 7.0 0.00 0.00 0.00 33 1015.7
20260904021051 88 244 4.0 9.0 0.00 0.00 0.00 32 1015.6
20260904020551 88 252 4.0 9.0 0.00 0.00 0.00 32 1015.5
20260904020054 88 276 3.0 8.0 0.00 0.00 0.00 32 1015.5
20260904015552 88 244 4.0 8.0 0.00 0.00 0.00 31 1015.4
20260904015051 88 268 3.0 7.0 0.00 0.00 0.00 31 1015.3
20260904014615 88 290 3.0 7.0 0.00 0.00 0.00 31 1015.4
20260904014049 89 311 2.0 8.0 0.00 0.00 0.00 31 1015.3
20260904013550 89 250 5.0 10.0 0.00 0.00 0.00 31 1015.3
20260904013107 89 266 6.0 10.0 0.00 0.00 0.00 31 1015.4
20260904012550 89 234 4.0 6.0 0.00 0.00 0.00 31 1015.3
20260904012051 89 261 4.0 9.0 0.00 0.00 0.00 31 1015.3
20260904011549 90 286 5.0 9.0 0.00 0.00 0.00 30 1015.3
20260904011049 90 233 4.0 10.0 0.00 0.00 0.00 30 1015.3
20260904010549 90 242 5.0 9.0 0.00 0.00 0.00 30 1015.3
20260904010057 90 248 4.0 8.0 0.00 0.00 0.00 29 1015.2
20260904005549 90 258 4.0 9.0 0.00 0.00 0.00 30 1015.2
20260904005049 91 240 4.0 9.0 0.00 0.00 0.00 29 1015.2